Regional Weather Roundup
Issued by NWS

Home | Current Version | Previous Version | Graphics & Text | Print | Product List | Glossary Off
Versions: 1 2 3 4 5 6 7 8 9 10 11 12 13 14 15 16 17 18 19 20 21 22 23 24 25 26 27 28 29 30 31 32 33 34 35 36 37 38 39 40 41 42 43 44 45 46 47 48 49 50

000
ASUS43 KMPX 210310
RWRMN
WEATHER ROUNDUP FOR MINNESOTA
NATIONAL WEATHER SERVICE TWIN CITIES/CHANHASSEN MN
1000 PM CDT MON APR 20 2015


NOTE: "FAIR" INDICATES FEW OR NO CLOUDS BELOW 12,000 FEET WITH NO
SIGNIFICANT WEATHER AND/OR OBSTRUCTIONS TO VISIBILITY. N/A MEANS
CURRENT SKY AND/OR WEATHER CONDITIONS ARE NOT AVAILABLE.

MNZ060>063-068>070-210400-
   Twin Cities Metro

CITY           SKY/WX    TMP DP  RH WIND       PRES   REMARKS
TWIN CITIES    LGT RAIN  37  32  82 W18G26    29.54R
ST PAUL        CLOUDY    38  32  79 NW17G26   29.54S
CRYSTAL        CLOUDY    38  32  79 NW14G23   29.53S
BLAINE         CLOUDY    39  30  70 W17G29    29.53R
LAKEVILLE      MOCLDY    37  30  75 W21G26    29.54F
EDEN PRAIRIE   CLOUDY    39  30  70 W22G29    29.54S
SOUTH ST PAUL  CLOUDY    40  31  68 NW13G26   29.53S
LAKE ELMO      CLOUDY    37  32  81 W21G28    29.52F
$$
MNZ001>005-007-008-013>017-022>024-027-028-210400-
   Northwest Minnesota

CITY           SKY/WX    TMP DP  RH WIND       PRES   REMARKS
BEMIDJI        CLOUDY    32  27  81 NW18G31   29.49F WCI  20
HALLOCK        CLOUDY    34  28  80 NW23G30   29.61F WCI  22
ROSEAU         FLURRIES  32  27  80 NW16      29.52F WCI  21
WARROAD        LGT SNOW  30  27  86 NW17G23   29.50S WCI  18
THIEF RVR FALL CLOUDY    32  27  80 NW22G29   29.58S WCI  19
CROOKSTON      CLOUDY    34  30  86 N29G38    29.62S WCI  20
FOSSTON        LGT SNOW  30  27  86 NW16G25   29.57R WCI  19
DETROIT LAKES  CLOUDY    32  30  93 NW21G26   29.59S WCI  20
MOORHEAD       CLOUDY    36  30  80 NW10      29.65S
PARK RAPIDS    CLOUDY    38  27  64 NW18      29.51S
MAHNOMEN       CLOUDY    32  29  88 NW25      29.58S WCI  19
$$
MNZ006-009>011-018-025>026-210400-
   North Central Minnesota

CITY           SKY/WX    TMP DP  RH WIND       PRES   REMARKS
BAUDETTE       CLOUDY    32  27  81 NW17G28   29.44S WCI  21
FLAG ISLAND    LGT SNOW  32  28  86 NW22G29   29.45F WCI  19
INTL FALLS     LGT SNOW  33  30  88 NW14      29.37S FOG     WCI  23
WASKISH          N/A     32  28  86 W16G24    29.47S WCI  21
BIG FORK       LGT SNOW  32  28  86 NW10G16   29.41F WCI  24
LONGVILLE      FLURRIES  34  28  80 NW13G25   29.47S WCI  25
GRAND RAPIDS   CLOUDY    32  27  80 NW20G29   29.42S WCI  20
CRANE LAKE     CLOUDY    32  30  93 NW2       29.35S
ORR            LGT SNOW  32  28  86 NW14G24   29.33S WCI  22
COOK           LGT SNOW  32  30  93 W14G21    29.35F WCI  22
$$
MNZ012-019>021-037-210400-
   Northeast Minnesota

CITY           SKY/WX    TMP DP  RH WIND       PRES   REMARKS
DULUTH         LGT SNOW  33  29  85 W14       29.36F FOG     WCI  23
ELY            LGT SNOW  32  30  93 W8        29.30S WCI  25
HIBBING        LGT SNOW  33  28  81 W12       29.37S WCI  24
EVELETH        LGT SNOW  32  32 100 W18G24    29.37S WCI  20
DULUTH HARBOR  CLOUDY    37  32  81 W16G22    29.40F
TWO HARBORS    LGT SNOW  36  30  80 W8G21     29.32F
SILVER BAY     FLURRIES  34  30  86 SW5       29.30F WCI  30
GRAND MARAIS     N/A     35  31  85 W8        29.27F WCI  29
G MARAIS ARPRT CLOUDY    30  27  86 W9        29.23F WCI  22
$$
MNZ029>031-032-039>041-046>048-054>057-064-210400-
   West Central Minnesota

CITY           SKY/WX    TMP DP  RH WIND       PRES   REMARKS
FERGUS FALLS   CLOUDY    34  30  86 N16G25    29.65R WCI  23
WHEATON        CLOUDY    37  27  65 NW17G25   29.68R
MORRIS         CLOUDY    36  34  93 NW17      29.63R
ALEXANDRIA     CLOUDY    34  28  79 NW20G31   29.59R WCI  23
ELBOW LAKE     CLOUDY    34  32  93 NW22      29.62S WCI  22
WADENA         CLOUDY    32  27  80 NW25G31   29.55R WCI  19
GLENWOOD       CLOUDY    34  30  86 NW18G24   29.60R WCI  23
APPLETON       PTCLDY    39  30  70 NW20G26   29.65S
BENSON         MIX PCPN  36  32  87 N18G39    29.64R
ORTONVILLE     CLOUDY    39  28  65 NW21G26   29.66S
MADISON        CLOUDY    41  28  60 NW14G24   29.66S
WILLMAR        LGT SNOW  36  34  93 NW20G25   29.63S
$$
MNZ033>034-036-042>043-049>051-058-059-210400-
   Central Minnesota

CITY           SKY/WX    TMP DP  RH WIND       PRES   REMARKS
ST CLOUD       CLOUDY    35  27  72 NW15      29.54S WCI  25
SAUK CENTRE    LGT SNOW  33  31  90 NW16G25   29.58R WCI  23
PAYNESVILLE    CLOUDY    33  28  83 W16G23    29.59S WCI  22
AITKIN         LGT SNOW  36  28  75 W6        29.46R
PINE RIVER     FLURRIES  32  28  86 W12       29.53S WCI  23
BRAINERD       LGT SNOW  33  30  88 W15G24    29.50S FOG     WCI  23
STAPLES        CLOUDY    32  27  80 NW15G26   29.53S WCI  22
LONG PRAIRIE   CLOUDY    32  28  86 W18G24    29.56S WCI  20
LITTLE FALLS   CLOUDY    34  28  80 W15G21    29.53S WCI  24
LITCHFIELD     CLOUDY    37  34  87 NW16G25   29.58F
BUFFALO        CLOUDY    37  30  75 W15G24    29.56S
MAPLE LAKE     MOCLDY    37  31  79 W16G23    29.56S
$$
MNZ037-044-045-052-053-210400-
   East Central Minnesota

CITY           SKY/WX    TMP DP  RH WIND       PRES   REMARKS
PRINCETON      CLOUDY    36  30  80 W16G22    29.53S
MORA           FLURRIES  34  30  86 W12       29.50S WCI  25
CAMBRIDGE      LGT RAIN  37  28  70 W15G21    29.49S
RUSH CITY      CLOUDY    36  29  77 W13G23    29.49S
MOOSE LAKE     LGT SNOW  34  30  86 W8G18     29.42F WCI  27
HINCKLEY       FLURRIES  36  32  87 W10       29.47S
CLOQUET        LGT SNOW  34  30  86 W13G18    29.40S WCI  25
MCGREGOR       CLOUDY    34  32  93 W10G17    29.45S WCI  26
$$
MNZ071>073-080-081-089-090-097-098-210400-
   Southwest Minnesota

CITY           SKY/WX    TMP DP  RH WIND       PRES   REMARKS
MONTEVIDEO     CLOUDY    39  34  81 N15G21    29.65F
GRANITE FALLS  CLOUDY    38  32  78 NW15      29.66F
CANBY          CLOUDY    40  28  63 NW12      29.69R
MARSHALL       MOCLDY    39  25  56 NW17      29.66S
REDWOOD FALLS  LGT RAIN  37  33  85 NW17G33   29.64R
OLIVIA         MOCLDY    34  30  86 NW15G22   29.62S WCI  24
PIPESTONE      CLEAR     37  27  65 NW5       29.69R
WINDOM         MOCLDY    39  27  60 W14       29.66R
WORTHINGTON    CLEAR     37  25  60 NW9       29.70R
JACKSON        PTCLDY    39  27  60 W15G21    29.67S
TRACY          CLOUDY    41  28  58 NW15      29.67R
SLAYTON        CLEAR     37  26  66 NW10      29.68S
$$
MNZ065>067-074>077-082>085-091>093-210400-
   South Central Minnesota

CITY           SKY/WX    TMP DP  RH WIND       PRES   REMARKS
MANKATO        MOCLDY    37  28  70 NW23G30   29.61S
NEW ULM        MOCLDY    39  28  65 NW22G36   29.63R
ST JAMES       CLOUDY    43  28  56 W18       29.65S
FAIRMONT       MOCLDY    39  25  56 W12       29.64S
GLENCOE        CLOUDY    39  33  79 W17G24    29.58S
FARIBAULT      CLOUDY    37  32  81 W21G26    29.58S
OWATONNA       DRIZZLE   37  34  87 W18G26    29.58F
WASECA         LGT RAIN  37  32  81 W16       29.61F
ALBERT LEA     MOCLDY    39  30  70 W8        29.61R
$$
MNZ078>079-086>088-094>096-210400-
   Southeast Minnesota

CITY           SKY/WX    TMP DP  RH WIND       PRES   REMARKS
ROCHESTER      FLURRIES  36  32  85 W21G28    29.56F
RED WING       DRIZZLE   39  30  70 NW15G23   29.52S
STANTON        MOCLDY    39  32  74 W17       29.55S
DODGE CENTER   MOCLDY    37  34  87 W17       29.56F
WINONA         PTCLDY    41  32  70 W12G20    29.54S
AUSTIN         DRIZZLE   37  30  75 W14G23    29.60R
PRESTON        CLOUDY    36  32  87 W14       29.58S
$$
ABBREVIATIONS USED IN REMARKS
   TC - TEMPERATURES IN CELSIUS
  WCI - WIND CHILL INDEX
   HX - HEAT INDEX
  VSB - VISIBILITY
$$


USA.gov is the U.S. government's official web portal to all federal, state and local government web resources and services.